Time,TemperatureF,DewpointF,PressureIn,WindDirection,WindDirectionDegrees,WindSpeedMPH,WindSpeedGustMPH,Humidity,HourlyPrecipIn,Conditions,Clouds,dailyrainin,SoftwareType,DateUTC
2017-12-17 00:02:00,43.5,41.1,0.00,North,0,0.0,0.0,91,0.00,,,-99.99,pyweather 0.1a,2017-12-17 08:02:00,
2017-12-17 00:10:00,43.3,40.9,0.00,North,0,0.0,0.0,91,0.00,,,-99.99,pyweather 0.1a,2017-12-17 08:10:00,
2017-12-17 00:18:00,43.3,40.9,0.00,North,0,0.0,0.0,91,0.00,,,-99.99,pyweather 0.1a,2017-12-17 08:18:00,
2017-12-17 00:26:00,43.3,40.9,0.00,North,0,0.0,0.0,91,0.00,,,-99.99,pyweather 0.1a,2017-12-17 08:26:00,
2017-12-17 00:34:00,43.3,40.9,0.00,North,0,0.0,0.0,91,0.00,,,-99.99,pyweather 0.1a,2017-12-17 08:34:00,
2017-12-17 00:42:00,43.3,41.2,0.00,North,0,0.0,0.0,92,0.00,,,-99.99,pyweather 0.1a,2017-12-17 08:42:00,
2017-12-17 00:50:00,43.3,41.2,0.00,North,0,0.0,0.0,92,0.00,,,-99.99,pyweather 0.1a,2017-12-17 08:50:00,
2017-12-17 00:59:00,43.3,41.2,0.00,North,0,0.0,0.0,92,0.00,,,-99.99,pyweather 0.1a,2017-12-17 08:59:00,
2017-12-17 01:07:00,43.2,41.0,0.00,North,0,0.0,0.0,92,0.00,,,-99.99,pyweather 0.1a,2017-12-17 09:07:00,
2017-12-17 01:15:00,43.0,40.8,0.00,North,0,0.0,0.0,92,0.00,,,-99.99,pyweather 0.1a,2017-12-17 09:15:00,
2017-12-17 01:23:00,43.0,40.8,0.00,North,0,0.0,0.0,92,0.00,,,-99.99,pyweather 0.1a,2017-12-17 09:23:00,
2017-12-17 01:31:00,43.0,40.8,0.00,North,0,0.0,0.0,92,0.00,,,-99.99,pyweather 0.1a,2017-12-17 09:31:00,
2017-12-17 01:39:00,43.0,40.8,0.00,North,0,0.0,0.0,92,0.00,,,-99.99,pyweather 0.1a,2017-12-17 09:39:00,
2017-12-17 01:47:00,42.8,40.6,0.00,North,0,0.0,0.0,92,0.00,,,-99.99,pyweather 0.1a,2017-12-17 09:47:00,
2017-12-17 01:55:00,42.8,40.6,0.00,North,0,0.0,0.0,92,0.00,,,-99.99,pyweather 0.1a,2017-12-17 09:55:00,
2017-12-17 02:03:00,42.6,40.5,0.00,North,0,0.0,0.0,92,0.00,,,-99.99,pyweather 0.1a,2017-12-17 10:03:00,
2017-12-17 02:11:00,42.6,40.5,0.00,North,0,0.0,0.0,92,0.00,,,-99.99,pyweather 0.1a,2017-12-17 10:11:00,
2017-12-17 02:19:00,42.6,40.5,0.00,North,0,0.0,0.0,92,0.00,,,-99.99,pyweather 0.1a,2017-12-17 10:19:00,
2017-12-17 02:27:00,42.6,40.5,0.00,North,0,0.0,0.0,92,0.00,,,-99.99,pyweather 0.1a,2017-12-17 10:27:00,
2017-12-17 02:35:00,42.6,40.5,0.00,North,0,0.0,0.0,92,0.00,,,-99.99,pyweather 0.1a,2017-12-17 10:35:00,
2017-12-17 02:43:00,42.6,40.5,0.00,North,0,0.0,0.0,92,0.00,,,-99.99,pyweather 0.1a,2017-12-17 10:43:00,
2017-12-17 02:51:00,42.6,40.7,0.00,North,0,0.0,0.0,93,0.00,,,-99.99,pyweather 0.1a,2017-12-17 10:51:00,
2017-12-17 02:59:00,42.6,40.5,0.00,North,0,0.0,0.0,92,0.00,,,-99.99,pyweather 0.1a,2017-12-17 10:59:00,
2017-12-17 03:07:00,42.6,40.7,0.00,North,0,0.0,0.0,93,0.00,,,-99.99,pyweather 0.1a,2017-12-17 11:07:00,
2017-12-17 03:15:00,42.8,40.6,0.00,North,0,0.0,0.0,92,0.00,,,-99.99,pyweather 0.1a,2017-12-17 11:15:00,
2017-12-17 03:23:00,42.8,40.6,0.00,North,0,0.0,0.0,92,0.00,,,-99.99,pyweather 0.1a,2017-12-17 11:23:00,
2017-12-17 03:31:00,43.0,40.8,0.00,North,0,0.0,0.0,92,0.00,,,-99.99,pyweather 0.1a,2017-12-17 11:31:00,
2017-12-17 03:39:00,43.2,41.3,0.00,North,0,0.0,0.0,93,0.00,,,-99.99,pyweather 0.1a,2017-12-17 11:39:00,
2017-12-17 03:47:00,43.3,41.5,0.00,North,0,0.0,0.0,93,0.00,,,-99.99,pyweather 0.1a,2017-12-17 11:47:00,
2017-12-17 03:55:00,43.3,41.5,0.00,North,0,0.0,0.0,93,0.00,,,-99.99,pyweather 0.1a,2017-12-17 11:55:00,
2017-12-17 04:03:00,43.5,41.6,0.00,North,0,0.0,0.0,93,0.00,,,-99.99,pyweather 0.1a,2017-12-17 12:03:00,
2017-12-17 04:12:00,43.5,41.6,0.00,North,0,0.0,0.0,93,0.00,,,-99.99,pyweather 0.1a,2017-12-17 12:12:00,
2017-12-17 04:20:00,43.5,41.6,0.00,North,0,0.0,0.0,93,0.00,,,-99.99,pyweather 0.1a,2017-12-17 12:20:00,
2017-12-17 04:28:00,43.7,41.8,0.00,North,0,0.0,0.0,93,0.00,,,-99.99,pyweather 0.1a,2017-12-17 12:28:00,
2017-12-17 04:52:00,43.7,41.8,0.00,North,0,0.0,0.0,93,0.00,,,-99.99,pyweather 0.1a,2017-12-17 12:52:00,
2017-12-17 05:00:00,43.7,41.8,0.00,North,0,0.0,0.0,93,0.00,,,-99.99,pyweather 0.1a,2017-12-17 13:00:00,
2017-12-17 05:08:00,43.7,41.8,0.00,North,0,0.0,0.0,93,0.00,,,-99.99,pyweather 0.1a,2017-12-17 13:08:00,
2017-12-17 05:16:00,43.7,41.8,0.00,North,0,0.0,0.0,93,0.00,,,-99.99,pyweather 0.1a,2017-12-17 13:16:00,
2017-12-17 05:24:00,43.7,41.8,0.00,North,0,0.0,0.0,93,0.00,,,-99.99,pyweather 0.1a,2017-12-17 13:24:00,
2017-12-17 05:32:00,43.7,41.8,0.00,North,0,0.0,0.0,93,0.00,,,-99.99,pyweather 0.1a,2017-12-17 13:32:00,
2017-12-17 05:40:00,43.9,42.0,0.00,North,0,0.0,0.0,93,0.00,,,-99.99,pyweather 0.1a,2017-12-17 13:40:00,
2017-12-17 05:48:00,43.9,42.0,0.00,North,0,0.0,0.0,93,0.00,,,-99.99,pyweather 0.1a,2017-12-17 13:48:00,
2017-12-17 05:56:00,43.9,42.0,0.00,North,0,0.0,0.0,93,0.00,,,-99.99,pyweather 0.1a,2017-12-17 13:56:00,
2017-12-17 06:04:00,44.1,42.2,0.00,North,0,0.0,0.0,93,0.00,,,-99.99,pyweather 0.1a,2017-12-17 14:04:00,
2017-12-17 06:12:00,44.1,42.2,0.00,North,0,0.0,0.0,93,0.00,,,-99.99,pyweather 0.1a,2017-12-17 14:12:00,
2017-12-17 06:20:00,44.1,42.2,0.00,North,0,0.0,0.0,93,0.00,,,-99.99,pyweather 0.1a,2017-12-17 14:20:00,
2017-12-17 06:44:00,44.1,42.2,0.00,North,0,0.0,0.0,93,0.00,,,-99.99,pyweather 0.1a,2017-12-17 14:44:00,
2017-12-17 06:52:00,44.1,42.2,0.00,North,0,0.0,0.0,93,0.00,,,-99.99,pyweather 0.1a,2017-12-17 14:52:00,
2017-12-17 07:01:00,44.1,42.2,0.00,North,0,0.0,0.0,93,0.00,,,-99.99,pyweather 0.1a,2017-12-17 15:01:00,
2017-12-17 07:09:00,44.1,42.2,0.00,North,0,0.0,0.0,93,0.00,,,-99.99,pyweather 0.1a,2017-12-17 15:09:00,
2017-12-17 07:17:00,44.1,42.2,0.00,North,0,0.0,0.0,93,0.00,,,-99.99,pyweather 0.1a,2017-12-17 15:17:00,
2017-12-17 07:25:00,44.1,42.2,0.00,North,0,0.0,0.0,93,0.00,,,-99.99,pyweather 0.1a,2017-12-17 15:25:00,
2017-12-17 07:33:00,44.1,42.2,0.00,North,0,0.0,0.0,93,0.00,,,-99.99,pyweather 0.1a,2017-12-17 15:33:00,
2017-12-17 07:41:00,44.2,42.6,0.00,North,0,0.0,0.0,94,0.00,,,-99.99,pyweather 0.1a,2017-12-17 15:41:00,
2017-12-17 07:49:00,44.2,42.6,0.00,North,0,0.0,0.0,94,0.00,,,-99.99,pyweather 0.1a,2017-12-17 15:49:00,
2017-12-17 07:57:00,44.2,42.6,0.00,North,0,0.0,0.0,94,0.00,,,-99.99,pyweather 0.1a,2017-12-17 15:57:00,
2017-12-17 08:05:00,44.2,42.6,0.00,North,0,0.0,0.0,94,0.00,,,-99.99,pyweather 0.1a,2017-12-17 16:05:00,
2017-12-17 08:13:00,44.4,42.8,0.00,North,0,0.0,0.0,94,0.00,,,-99.99,pyweather 0.1a,2017-12-17 16:13:00,
2017-12-17 08:21:00,44.4,42.8,0.00,North,0,0.0,0.0,94,0.00,,,-99.99,pyweather 0.1a,2017-12-17 16:21:00,
2017-12-17 08:37:00,44.6,43.0,0.00,North,0,0.0,0.0,94,0.00,,,-99.99,pyweather 0.1a,2017-12-17 16:37:00,
2017-12-17 08:45:00,44.6,43.0,0.00,North,0,0.0,0.0,94,0.00,,,-99.99,pyweather 0.1a,2017-12-17 16:45:00,
2017-12-17 08:53:00,44.6,43.0,0.00,North,0,0.0,0.0,94,0.00,,,-99.99,pyweather 0.1a,2017-12-17 16:53:00,
2017-12-17 09:01:00,44.6,43.0,0.00,North,0,0.0,0.0,94,0.00,,,-99.99,pyweather 0.1a,2017-12-17 17:01:00,
2017-12-17 09:09:00,44.6,43.0,0.00,North,0,0.0,0.0,94,0.00,,,-99.99,pyweather 0.1a,2017-12-17 17:09:00,
2017-12-17 09:17:00,44.6,43.0,0.00,North,0,0.0,0.0,94,0.00,,,-99.99,pyweather 0.1a,2017-12-17 17:17:00,
2017-12-17 09:25:00,44.6,43.0,0.00,North,0,0.0,0.0,94,0.00,,,-99.99,pyweather 0.1a,2017-12-17 17:25:00,
2017-12-17 09:33:00,44.8,43.2,0.00,North,0,0.0,0.0,94,0.00,,,-99.99,pyweather 0.1a,2017-12-17 17:33:00,
2017-12-17 09:41:00,44.8,43.2,0.00,North,0,0.0,0.0,94,0.00,,,-99.99,pyweather 0.1a,2017-12-17 17:41:00,
2017-12-17 09:57:00,45.0,43.3,0.00,North,0,0.0,0.0,94,0.00,,,-99.99,pyweather 0.1a,2017-12-17 17:57:00,
2017-12-17 10:06:00,45.1,43.5,0.00,North,0,0.0,0.0,94,0.00,,,-99.99,pyweather 0.1a,2017-12-17 18:06:00,
2017-12-17 10:22:00,45.3,44.0,0.00,North,0,0.0,0.0,95,0.00,,,-99.99,pyweather 0.1a,2017-12-17 18:22:00,
2017-12-17 10:30:00,45.3,44.0,0.00,North,0,0.0,0.0,95,0.00,,,-99.99,pyweather 0.1a,2017-12-17 18:30:00,
2017-12-17 10:38:00,45.5,44.2,0.00,North,0,0.0,0.0,95,0.00,,,-99.99,pyweather 0.1a,2017-12-17 18:38:00,
2017-12-17 10:46:00,45.7,44.3,0.00,North,0,0.0,0.0,95,0.00,,,-99.99,pyweather 0.1a,2017-12-17 18:46:00,
2017-12-17 10:54:00,45.9,44.5,0.00,North,0,0.0,0.0,95,0.00,,,-99.99,pyweather 0.1a,2017-12-17 18:54:00,
2017-12-17 11:02:00,46.0,44.7,0.00,North,0,0.0,0.0,95,0.00,,,-99.99,pyweather 0.1a,2017-12-17 19:02:00,
2017-12-17 11:10:00,46.2,45.2,0.00,North,0,0.0,0.0,96,0.00,,,-99.99,pyweather 0.1a,2017-12-17 19:10:00,
2017-12-17 11:18:00,46.2,45.2,0.00,North,0,0.0,0.0,96,0.00,,,-99.99,pyweather 0.1a,2017-12-17 19:18:00,
2017-12-17 11:26:00,46.4,45.0,0.00,North,0,0.0,0.0,95,0.00,,,-99.99,pyweather 0.1a,2017-12-17 19:26:00,
2017-12-17 11:34:00,46.6,45.2,0.00,North,0,0.0,0.0,95,0.00,,,-99.99,pyweather 0.1a,2017-12-17 19:34:00,
2017-12-17 11:42:00,46.6,45.2,0.00,North,0,0.0,0.0,95,0.00,,,-99.99,pyweather 0.1a,2017-12-17 19:42:00,
2017-12-17 11:50:00,46.8,45.4,0.00,North,0,0.0,0.0,95,0.00,,,-99.99,pyweather 0.1a,2017-12-17 19:50:00,
2017-12-17 11:58:00,46.9,45.6,0.00,North,0,0.0,0.0,95,0.00,,,-99.99,pyweather 0.1a,2017-12-17 19:58:00,
2017-12-17 12:06:00,47.3,45.9,0.00,North,0,0.0,0.0,95,0.00,,,-99.99,pyweather 0.1a,2017-12-17 20:06:00,
2017-12-17 12:14:00,47.3,45.9,0.00,North,0,0.0,0.0,95,0.00,,,-99.99,pyweather 0.1a,2017-12-17 20:14:00,
2017-12-17 12:22:00,47.5,46.1,0.00,North,0,0.0,0.0,95,0.00,,,-99.99,pyweather 0.1a,2017-12-17 20:22:00,
2017-12-17 12:30:00,47.7,46.3,0.00,North,0,0.0,0.0,95,0.00,,,-99.99,pyweather 0.1a,2017-12-17 20:30:00,
2017-12-17 12:38:00,47.7,46.3,0.00,North,0,0.0,0.0,95,0.00,,,-99.99,pyweather 0.1a,2017-12-17 20:38:00,
2017-12-17 12:46:00,47.8,46.5,0.00,North,0,0.0,0.0,95,0.00,,,-99.99,pyweather 0.1a,2017-12-17 20:46:00,
2017-12-17 12:54:00,47.8,46.5,0.00,North,0,0.0,0.0,95,0.00,,,-99.99,pyweather 0.1a,2017-12-17 20:54:00,
2017-12-17 13:02:00,48.0,46.7,0.00,North,0,0.0,0.0,95,0.00,,,-99.99,pyweather 0.1a,2017-12-17 21:02:00,
2017-12-17 13:10:00,48.2,46.8,0.00,North,0,0.0,0.0,95,0.00,,,-99.99,pyweather 0.1a,2017-12-17 21:10:00,
2017-12-17 13:18:00,48.2,46.8,0.00,North,0,0.0,0.0,95,0.00,,,-99.99,pyweather 0.1a,2017-12-17 21:18:00,
2017-12-17 13:26:00,48.4,46.7,0.00,North,0,0.0,0.0,94,0.00,,,-99.99,pyweather 0.1a,2017-12-17 21:26:00,
2017-12-17 13:34:00,48.6,46.9,0.00,North,0,0.0,0.0,94,0.00,,,-99.99,pyweather 0.1a,2017-12-17 21:34:00,
2017-12-17 13:42:00,48.7,47.1,0.00,North,0,0.0,0.0,94,0.00,,,-99.99,pyweather 0.1a,2017-12-17 21:42:00,
2017-12-17 13:50:00,48.7,46.8,0.00,North,0,0.0,0.0,93,0.00,,,-99.99,pyweather 0.1a,2017-12-17 21:50:00,
2017-12-17 13:58:00,48.7,46.5,0.00,North,0,0.0,0.0,92,0.00,,,-99.99,pyweather 0.1a,2017-12-17 21:58:00,
2017-12-17 14:06:00,48.9,46.4,0.00,North,0,0.0,0.0,91,0.00,,,-99.99,pyweather 0.1a,2017-12-17 22:06:00,
2017-12-17 14:14:00,48.9,46.1,0.00,North,0,0.0,0.0,90,0.00,,,-99.99,pyweather 0.1a,2017-12-17 22:14:00,
2017-12-17 14:22:00,48.9,45.8,0.00,North,0,0.0,0.0,89,0.00,,,-99.99,pyweather 0.1a,2017-12-17 22:22:00,
2017-12-17 14:30:00,48.9,45.5,0.00,North,0,0.0,0.0,88,0.00,,,-99.99,pyweather 0.1a,2017-12-17 22:30:00,
2017-12-17 14:38:00,48.9,45.2,0.00,North,0,0.0,0.0,87,0.00,,,-99.99,pyweather 0.1a,2017-12-17 22:38:00,
2017-12-17 14:54:00,49.1,45.1,0.00,North,0,0.0,0.0,86,0.00,,,-99.99,pyweather 0.1a,2017-12-17 22:54:00,
2017-12-17 15:02:00,49.1,44.8,0.00,North,0,0.0,0.0,85,0.00,,,-99.99,pyweather 0.1a,2017-12-17 23:02:00,
2017-12-17 15:18:00,48.9,44.0,0.00,North,0,0.0,0.0,83,0.00,,,-99.99,pyweather 0.1a,2017-12-17 23:18:00,
2017-12-17 15:34:00,49.1,43.8,0.00,North,0,0.0,0.0,82,0.00,,,-99.99,pyweather 0.1a,2017-12-17 23:34:00,